Location: Killam
(52.7910°N, 111.8608°W)
Time: 23:12:48
(UTC+00:00)

NANOSAT C BR1 - Visible Passes

Search period start: 13 March 2026 00:00
Search period end: 23 March 2026 00:00
Orbit: 478 x 484 km, 98.1° (Epoch: 13 March)

Date Brightness Start Highest point End Pass type
(mag) Time Alt. Az. Time Alt. Az. Time Alt. Az.
13 Mar ? 03:13:22 10° WSW 03:14:26 11° W 03:15:28 10° WNW visible
14 Mar ? 02:45:59 10° SW 02:48:40 20° W 02:51:22 10° NW visible
15 Mar ? 02:19:40 10° SSW 02:22:59 36° W 02:26:19 10° NNW visible
17 Mar ? 03:03:29 10° WSW 03:05:25 14° W 03:07:24 10° WNW visible
18 Mar ? 02:36:34 10° SSW 02:39:34 25° W 02:42:34 10° NW visible
19 Mar ? 02:10:18 10° S 02:13:45 47° W 02:17:14 10° NNW visible
21 Mar ? 02:53:19 10° SW 02:55:49 18° W 02:58:20 10° NW visible
22 Mar ? 02:26:37 10° SSW 02:29:51 32° W 02:33:06 10° NNW visible
